Location: Praha
(50.0830°N, 14.4670°E)
Time: 22:24:47
(UTC+02:00)

ISS - Pass Details

Date: 10 May 2021
Orbit: 418 x 421 km, 51.6° (Epoch: 07 May)

Event Time Altitude Azimuth Distance (km) Brightness Sun altitude
Exits shadow 01:17:27 19° 81° (E) 1,074 -1.6 -22.2°
Drops below altitude 10° 01:18:33 10° 76° (ENE) 1,505 -0.7 -22.2°
Sets 01:20:40 0° 73° (ENE) 2,373 0.4 -22.1°
